Location: Forli
(44.2227°N, 12.0407°E)
Time: 15:38:35
(UTC+01:00)

BlueWalker 3 - Pass Details

Date: 22 February 2026
Orbit: 451 x 458 km, 53.2° (Epoch: 6 March)

Event Time Altitude Azimuth Distance (km) Brightness Sun altitude
Rises 05:48:38 0° 191° (S) 2,460 5.3 -13.7°
Reaches altitude 10° 05:51:21 10° 169° (S) 1,591 4.6 -13.2°
Maximum altitude 05:53:36 16° 130° (SE) 1,275 4.7 -12.8°
Drops below altitude 10° 05:55:51 10° 91° (E) 1,596 6.0 -12.4°
Sets 05:58:36 0° 69° (ENE) 2,472 6.8 -11.9°
